FW1702 Weather Reports


Display with metric or nautical units.
time (UTC)temp
F
wind
direction
speed
MPH
gust
MPH
rain 1hr
in
rain 24hr
in
rain mn
in
humidity
%
barometer
mb
20201127223128 77 46 2.0 6.0 0.00 0.00 0.00 72 1018.1
20201127221555 77 69 2.0 6.0 0.00 0.00 0.00 71 1018.0
20201127220110 78 79 3.0 6.0 0.00 0.00 0.00 71 1018.1
20201127214552 78 14 1.0 7.0 0.00 0.00 0.00 69 1018.2
20201127213220 79 59 2.0 5.0 0.00 0.00 0.00 69 1018.0
20201127211626 79 76 4.0 7.0 0.00 0.00 0.00 68 1017.8
20201127210046 80 84 4.0 8.0 0.00 0.00 0.00 66 1017.9
20201127204631 80 65 4.0 8.0 0.00 0.00 0.00 66 1017.9
20201127203112 81 29 2.0 8.0 0.00 0.00 0.00 67 1017.9
20201127201547 81 80 3.0 6.0 0.00 0.00 0.00 66 1017.9
20201127200112 81 53 3.0 9.0 0.00 0.00 0.00 66 1017.9
20201127194646 81 87 5.0 10.0 0.00 0.00 0.00 65 1017.9
20201127193115 81 71 5.0 9.0 0.00 0.00 0.00 64 1018.1
20201127191558 82 40 2.0 8.0 0.00 0.00 0.00 62 1018.2
20201127190104 81 87 6.0 9.0 0.00 0.00 0.00 62 1018.4
20201127184541 82 80 3.0 9.0 0.00 0.00 0.00 62 1018.7
20201127183029 82 40 3.0 9.0 0.00 0.00 0.00 62 1018.8
20201127181523 82 347 3.0 10.0 0.00 0.00 0.00 63 1019.0
20201127180138 83 349 4.0 9.0 0.00 0.00 0.00 61 1019.3
20201127174554 82 69 6.0 9.0 0.00 0.00 0.00 64 1019.4
20201127173136 82 90 3.0 9.0 0.00 0.00 0.00 63 1019.6
20201127171550 82 63 3.0 6.0 0.00 0.00 0.00 64 1019.9
20201127170021 82 67 4.0 10.0 0.00 0.00 0.00 65 1019.9
20201127164543 81 79 6.0 10.0 0.00 0.00 0.00 65 1020.1
20201127163023 81 26 3.0 9.0 0.00 0.00 0.00 65 1020.5
20201127161520 81 77 4.0 8.0 0.00 0.00 0.00 64 1020.5
20201127160014 81 40 4.0 9.0 0.00 0.00 0.00 64 1020.8
20201127154519 81 55 3.0 8.0 0.00 0.00 0.00 66 1020.9
20201127153020 81 53 3.0 7.0 0.00 0.00 0.00 69 1021.0
20201127151517 79 61 4.0 8.0 0.00 0.00 0.00 69 1021.2
20201127150022 79 64 3.0 9.0 0.00 0.00 0.00 69 1021.2
20201127144522 79 59 3.0 6.0 0.00 0.00 0.00 71 1021.3
20201127143008 80 70 3.0 6.0 0.00 0.00 0.00 70 1021.2
20201127141731 78 59 3.0 9.0 0.00 0.00 0.00 72 1021.2
20201127140206 77 61 2.0 6.0 0.00 0.00 0.00 74 1021.1
20201127134645 77 82 2.0 6.0 0.00 0.00 0.00 75 1021.0
20201127133148 77 90 2.0 8.0 0.00 0.00 0.00 75 1020.7
20201127131650 77 32 3.0 8.0 0.00 0.00 0.00 74 1020.7
20201127130228 76 84 3.0 6.0 0.00 0.00 0.00 75 1020.7
20201127124623 76 63 2.0 6.0 0.00 0.00 0.00 75 1020.4
20201127123115 75 37 2.0 5.0 0.00 0.00 0.00 75 1020.4
20201127121557 75 72 2.0 4.0 0.00 0.00 0.00 75 1020.0
20201127120148 75 79 1.0 4.0 0.00 0.00 0.00 75 1019.9
20201127114656 75 67 2.0 4.0 0.00 0.00 0.00 75 1019.8
20201127113121 75 75 1.0 6.0 0.00 0.00 0.00 76 1019.6
20201127111628 75 65 1.0 3.0 0.00 0.00 0.00 76 1019.5
20201127110131 75 66 1.0 4.0 0.00 0.00 0.00 76 1019.5
20201127104551 75 66 2.0 6.0 0.00 0.00 0.00 76 1019.5
20201127103051 75 95 2.0 8.0 0.00 0.00 0.00 77 1019.4
20201127101618 75 73 1.0 4.0 0.00 0.00 0.00 77 1019.4
20201127100122 75 87 1.0 6.0 0.00 0.00 0.00 77 1019.1
20201127094801 75 105 3.0 6.0 0.00 0.00 0.00 77 1019.1
20201127093121 75 98 3.0 8.0 0.00 0.00 0.00 77 1019.1
20201127091734 75 101 2.0 6.0 0.00 0.00 0.00 77 1019.0
20201127090051 76 105 2.0 9.0 0.00 0.00 0.00 77 1019.1
20201127084628 76 85 4.0 7.0 0.00 0.00 0.00 77 1019.1
20201127083103 75 68 3.0 8.0 0.00 0.00 0.00 76 1019.1
20201127081648 75 80 2.0 6.0 0.00 0.00 0.00 76 1019.3
20201127080111 75 82 2.0 7.0 0.00 0.00 0.00 77 1019.5
20201127074538 75 51 2.0 5.0 0.00 0.00 0.00 76 1019.5
20201127073042 75 78 2.0 7.0 0.00 0.00 0.00 76 1019.5
20201127071603 75 80 3.0 7.0 0.00 0.00 0.00 77 1019.4
20201127070059 75 89 1.0 7.0 0.00 0.00 0.00 77 1019.5
20201127064529 76 85 2.0 6.0 0.00 0.00 0.00 77 1019.7
20201127063038 76 94 3.0 6.0 0.00 0.00 0.00 76 1019.8
20201127061555 75 82 4.0 6.0 0.00 0.00 0.00 76 1019.7
20201127060032 76 84 2.0 8.0 0.00 0.00 0.00 76 1019.8
20201127054532 76 94 3.0 8.0 0.00 0.00 0.00 77 1020.0
20201127053048 76 67 4.0 10.0 0.00 0.00 0.00 76 1020.1
20201127051528 76 68 4.0 9.0 0.00 0.00 0.00 75 1020.3
20201127050020 76 92 5.0 10.0 0.00 0.00 0.00 76 1020.3
20201127044523 76 63 3.0 9.0 0.00 0.00 0.00 75 1020.3
20201127043026 76 64 3.0 8.0 0.00 0.00 0.00 74 1020.4
20201127041522 76 74 5.0 9.0 0.00 0.00 0.00 74 1020.5
20201127040022 76 88 5.0 10.0 0.00 0.00 0.00 74 1020.7
20201127034538 76 57 5.0 10.0 0.00 0.00 0.00 73 1020.6
20201127033017 76 57 6.0 11.0 0.00 0.00 0.00 73 1020.7
20201127031510 76 94 4.0 9.0 0.00 0.00 0.00 72 1020.6
20201127030022 76 58 3.0 11.0 0.00 0.00 0.00 72 1020.6
20201127024516 76 46 6.0 10.0 0.00 0.00 0.00 73 1020.8
20201127023012 76 63 4.0 9.0 0.00 0.00 0.00 73 1020.8
20201127021516 76 74 3.0 7.0 0.00 0.00 0.00 74 1020.9
20201127020025 76 63 3.0 9.0 0.00 0.00 0.00 74 1021.0
20201127014500 76 73 3.0 9.0 0.00 0.00 0.00 75 1021.0
20201127013201 76 82 2.0 8.0 0.00 0.00 0.00 76 1020.9
20201127011653 76 54 2.0 9.0 0.00 0.00 0.00 76 1020.7
20201127010200 76 71 2.0 7.0 0.00 0.00 0.00 76 1020.7
20201127004637 76 65 3.0 6.0 0.00 0.00 0.00 76 1020.6
20201127003151 76 58 2.0 6.0 0.00 0.00 0.00 75 1020.5
20201127001623 76 65 3.0 7.0 0.00 0.00 0.00 75 1020.4
20201127000226 77 69 3.0 5.0 0.00 0.00 0.00 75 1020.3
20201126234624 77 59 2.0 4.0 0.00 0.00 0.00 73 1020.1
20201126233322 77 68 3.0 5.0 0.00 0.00 0.00 73 1020.1
20201126231638 77 69 1.0 6.0 0.00 0.00 0.00 73 1019.8
20201126230140 77 105 2.0 5.0 0.00 0.00 0.00 73 1019.6
20201126224735 77 86 2.0 7.0 0.00 0.00 0.00 73 1019.6